[[{"header":{"parameterUnit":"m.s-1","parameterCategory":2,"la1":30.2991,"la2":30.254,"lo1":-89.0895,"lo2":-89.0444,"dy":0.0017,"dx":0.0017,"nx":28,"ny":28,"refTime":"2025-06-18T03:00:00:Z","depth":"0","parameterNumber":2,"parameterNumberName":"U-component_of_CURRENTS"},"data":[0,0,0,0,0,0,0,0,0,0,0,0,0,0,0,0,0,0,0,0,0,0,0,0,0,0,0,0,0,0,0,0,0,0,0,0,0,0,0,0,0,0,0,0,0,0,0,0,0,0,0,0,0,0,0,0,0,0,0.2683,0.2683,0,0.2686,0.2686,0.2686,0.2657,0.2657,0.2656,0.2656,0.267,0.267,0.2671,0,0,0,0,0,0,0,0,0,0,0,0,0,0.264,0.2641,0.2683,0.2683,0.2683,0.2686,0.2686,0.2686,0.2657,0.2657,0.2656,0.2656,0.2669,0.267,0.2671,0,0,0,0,0,0,0,0,0,0,0,0,0,0.265,0.2641,0.2683,0.2672,0.2672,0.2686,0.2686,0.2685,0.2657,0.2657,0.2656,0.2655,0.2669,0.267,0.2671,0.2693,0,0,0.2675,0.2676,0,0,0,0,0,0,0,0,0.2649,0.2651,0.2673,0.2673,0.2672,0.2674,0.2676,0.269,0.2658,0.2659,0.2656,0.2655,0.2675,0.2675,0.2672,0.2693,0.2694,0.2675,0.2676,0.2676,0.2677,0,0,0,0,0,0,0,0.2648,0.265,0.268,0.2674,0.2673,0.2664,0.2664,0.2678,0.2668,0.2659,0.2658,0.2664,0.2674,0.2671,0.2673,0.2694,0.2675,0.2676,0.2677,0.2677,0.2812,0.2814,0,0,0,0,0,0,0.2657,0.265,0.268,0.2681,0.2663,0.2665,0.2666,0.2671,0.2668,0.2668,0.2665,0.2663,0.267,0.2671,0.2673,0.2738,0.2676,0.2677,0.2678,0.2809,0.2812,0.2815,0,0,0,0,0,0,0.2656,0.2659,0.268,0.2668,0.2671,0.2667,0.2674,0.2672,0.2674,0.2673,0.2672,0.267,0.2669,0.2671,0.2708,0.2737,0.2678,0.2679,0.2805,0.281,0.2814,0.2843,0,0,0,0,0,0,0.2654,0.2659,0.2666,0.2669,0.2672,0.2698,0.2675,0.2672,0.268,0.2678,0.2677,0.2677,0.2669,0.2706,0.2709,0.2738,0.268,0.2802,0.2807,0.2812,0.2839,0.2848,0.2856,0,0,0,0,0,0.2653,0.2674,0.2667,0.2671,0.2682,0.2699,0.27,0.2692,0.2681,0.2689,0.27,0.2677,0.2743,0.2709,0.2712,0.2741,0.2799,0.2806,0.2812,0.2835,0.2846,0.2856,0,0,0,0,0,0,0.2669,0.2673,0.2665,0.2688,0.2695,0.2696,0.2706,0.27,0.2712,0.2712,0.2704,0.2707,0.2752,0.2754,0.2718,0.2803,0.2771,0.2779,0.2788,0.2799,0.2808,0.2803,0.2681,0,0,0,0,0,0.2674,0.2683,0.2689,0.2707,0.2712,0.2709,0.2715,0.2711,0.2723,0.2726,0.2725,0.2745,0.2782,0.2794,0.2818,0.2857,0.2876,0.2886,0.2894,0.2901,0.2905,0.2967,0.2981,0.2836,0.2836,0.2836,0,0,0.2688,0.269,0.2697,0.271,0.2712,0.273,0.271,0.2727,0.2744,0.2729,0.2752,0.2772,0.2802,0.2849,0.287,0.285,0.2958,0.2909,0.2914,0.2914,0.2975,0.2989,0.3001,0.2841,0.284,0.2839,0,0,0.272,0.2719,0.2736,0.2742,0.2752,0.2752,0.2761,0.2765,0.2768,0.2799,0.2805,0.2847,0.2877,0.291,0.2933,0.3011,0.3003,0.302,0.3053,0.3113,0.3125,0.3135,0.319,0.3205,0.3022,0.3022,0.3022,0,0.2738,0.2757,0.2747,0.2765,0.2775,0.2766,0.2791,0.2799,0.2814,0.2831,0.2814,0.2895,0.2912,0.2991,0.3018,0.3027,0.3056,0.3001,0.3121,0.3132,0.3142,0.3196,0.3212,0.3024,0.3024,0.3024,0.3023,0,0.2781,0.2794,0.2809,0.2822,0.2831,0.2854,0.2861,0.2874,0.2874,0.2885,0.2948,0.2975,0.3023,0.3045,0.305,0.314,0.3137,0.3122,0.3083,0.3157,0.3211,0.3227,0.3027,0.3026,0.3026,0.3025,0,0,0.284,0.2838,0.2846,0.2849,0.2863,0.2875,0.2908,0.294,0.2966,0.2985,0.3029,0.3099,0.3102,0.3131,0.3149,0.3199,0.3297,0.3188,0.319,0.3223,0.3431,0.3474,0.3496,0.3296,0.3298,0.3301,0.3443,0,0.2883,0.291,0.2905,0.2937,0.2952,0.2949,0.2977,0.3002,0.3019,0.3055,0.3098,0.3146,0.314,0.3163,0.3218,0.3274,0.3339,0.3259,0.3372,0.3376,0.3388,0.3516,0.3519,0.3651,0.3459,0.3462,0.3464,0,0.2938,0.2943,0.2972,0.2979,0.2987,0.3005,0.3039,0.3063,0.3112,0.3126,0.3176,0.3195,0.3282,0.3255,0.3395,0.3341,0.3396,0.3435,0.3441,0.348,0.345,0.3547,0.3687,0.3442,0.3488,0.3486,0.3484,0,0.2975,0.2997,0.3014,0.3018,0.3027,0.3043,0.3053,0.309,0.3114,0.3171,0.3197,0.3281,0.3328,0.3408,0.3486,0.3446,0.3634,0.3588,0.3686,0.3688,0.3714,0.3715,0.3615,0.3704,0.3703,0.3703,0.3703,0,0.3021,0.3037,0.3028,0.3036,0.3061,0.3062,0.3097,0.3117,0.3159,0.3197,0.3233,0.329,0.3367,0.3468,0.3527,0.3675,0.3677,0.3729,0.3746,0.3729,0.3729,0.3534,0.3428,0.3708,0.3707,0.3706,0.3705,0,0.3052,0.3048,0.3064,0.3071,0.3073,0.3088,0.3105,0.3128,0.3169,0.322,0.324,0.3326,0.3466,0.3558,0.3703,0.3743,0.3761,0.3911,0.3886,0.3899,0.3745,0.3644,0.3569,0.3467,0.4045,0.4048,0.4049,0,0.3068,0.3077,0.3079,0.3076,0.3075,0.3092,0.3098,0.313,0.3152,0.3246,0.3275,0.3418,0.3522,0.3761,0.3888,0.4045,0.3844,0.4103,0.4035,0.377,0.3669,0.3493,0.3398,0.4084,0.4086,0.4088,0.4089,0,0.3089,0.3086,0.3086,0.3082,0.3083,0.3085,0.3099,0.312,0.3164,0.3233,0.3327,0.3422,0.3666,0.3824,0.4033,0.4136,0.3891,0.4142,0.3879,0.3721,0.3515,0.3414,0.3932,0.4104,0.4102,0.4101,0.4101,0.41,0.3094,0.3095,0.3084,0.3078,0.3073,0.3064,0.3062,0.3095,0.315,0.3224,0.3345,0.3476,0.3683,0.3997,0.4077,0.4084,0.3999,0.3977,0.389,0.3743,0.3597,0.4151,0.4325,0.4325,0.4325,0.4325,0.4325,0,0.3086,0.3076,0.3074,0.3051,0.3032,0.304,0.3045,0.3038,0.309,0.3217,0.3324,0.3495,0.3669,0.3799,0.3905,0.38,0.3686,0.3656,0.3363,0.3292,0.3813,0.3759,0.3804,0.3804,0.3805,0.3805,0.3805,0.3805,0.3075,0.306,0.3054,0.3011,0.2993,0.2956,0.2954,0.2959,0.303,0.3087,0.316,0.3251,0.3327,0.3439,0.3362,0.3358,0.3018,0.3009,0.2827,0.3118,0.3136,0.3154,0.3071,0.2971,0.297,0.2258,0.2252,0.2248]},{"header":{"parameterUnit":"m.s-1","parameterCategory":2,"la1":30.2991,"la2":30.254,"lo1":-89.0895,"lo2":-89.0444,"dy":0.0017,"dx":0.0017,"nx":28,"ny":28,"refTime":"2025-06-18T03:00:00:Z","depth":"0","parameterNumber":3,"parameterNumberName":"V-component_of_CURRENTS"},"data":[0,0,0,0,0,0,0,0,0,0,0,0,0,0,0,0,0,0,0,0,0,0,0,0,0,0,0,0,0,0,0,0,0,0,0,0,0,0,0,0,0,0,0,0,0,0,0,0,0,0,0,0,0,0,0,0,0,0,-0.0337,-0.0337,0,-0.0331,-0.0331,-0.0331,-0.0357,-0.0358,-0.0359,-0.036,-0.0437,-0.0438,-0.0439,0,0,0,0,0,0,0,0,0,0,0,0,0,-0.0384,-0.0382,-0.0337,-0.0337,-0.0337,-0.0331,-0.0331,-0.0331,-0.0357,-0.0358,-0.0359,-0.036,-0.0437,-0.0438,-0.0439,0,0,0,0,0,0,0,0,0,0,0,0,0,-0.0368,-0.0382,-0.0337,-0.0351,-0.0352,-0.0331,-0.0331,-0.0331,-0.0357,-0.0358,-0.0359,-0.0361,-0.0436,-0.0438,-0.044,-0.0424,0,0,-0.0445,-0.0446,0,0,0,0,0,0,0,0,-0.0369,-0.0366,-0.0349,-0.035,-0.0351,-0.0347,-0.0376,-0.0366,-0.0356,-0.0353,-0.036,-0.0361,-0.0415,-0.0418,-0.0411,-0.0428,-0.0431,-0.0445,-0.0446,-0.0447,-0.0448,0,0,0,0,0,0,0,-0.037,-0.0366,-0.0333,-0.0349,-0.035,-0.0361,-0.036,-0.0374,-0.0377,-0.0354,-0.0356,-0.0357,-0.0416,-0.0409,-0.0413,-0.0432,-0.0445,-0.0447,-0.0448,-0.0449,-0.0463,-0.0462,0,0,0,0,0,0,-0.0371,-0.0367,-0.0334,-0.0333,-0.0365,-0.0359,-0.0358,-0.0346,-0.0375,-0.0381,-0.0356,-0.0358,-0.0405,-0.0411,-0.0416,-0.0412,-0.0447,-0.0449,-0.045,-0.0463,-0.0463,-0.0462,0,0,0,0,0,0,-0.0371,-0.0367,-0.0334,-0.0352,-0.0349,-0.0357,-0.0343,-0.0345,-0.0343,-0.0376,-0.0383,-0.0353,-0.0407,-0.0414,-0.0424,-0.0415,-0.045,-0.0451,-0.0464,-0.0463,-0.0462,-0.0395,0,0,0,0,0,0,-0.0372,-0.0367,-0.0357,-0.0352,-0.0348,-0.0317,-0.0342,-0.0344,-0.0343,-0.0346,-0.0376,-0.0384,-0.0408,-0.0421,-0.0426,-0.0418,-0.0453,-0.0465,-0.0464,-0.0463,-0.0398,-0.0392,-0.0387,0,0,0,0,0,-0.0374,-0.0357,-0.0357,-0.0353,-0.0334,-0.0317,-0.0315,-0.0326,-0.0341,-0.0331,-0.0353,-0.0383,-0.0417,-0.0422,-0.0428,-0.042,-0.0466,-0.0464,-0.0463,-0.0401,-0.0393,-0.0387,0,0,0,0,0,0,-0.0369,-0.0358,-0.0358,-0.0337,-0.0326,-0.0322,-0.0317,-0.0321,-0.0327,-0.0337,-0.037,-0.0378,-0.0384,-0.0408,-0.0413,-0.042,-0.0448,-0.0448,-0.0399,-0.0392,-0.0387,-0.0387,-0.0454,0,0,0,0,0,-0.0363,-0.0348,-0.0338,-0.0319,-0.0316,-0.0314,-0.031,-0.0312,-0.0318,-0.0322,-0.0339,-0.0363,-0.0378,-0.0391,-0.0406,-0.0407,-0.0436,-0.0408,-0.0402,-0.0397,-0.0401,-0.0432,-0.0429,-0.0457,-0.0457,-0.0457,0,0,-0.0354,-0.0347,-0.0338,-0.0318,-0.0314,-0.0293,-0.0314,-0.0303,-0.0289,-0.033,-0.0321,-0.034,-0.0373,-0.0372,-0.0378,-0.0395,-0.04,-0.0395,-0.039,-0.0397,-0.043,-0.0427,-0.0425,-0.0455,-0.0456,-0.0456,0,0,-0.0337,-0.0325,-0.0312,-0.0297,-0.0288,-0.028,-0.0275,-0.0266,-0.0269,-0.0256,-0.0285,-0.0298,-0.0315,-0.0334,-0.0349,-0.032,-0.0364,-0.0326,-0.0301,-0.033,-0.0328,-0.0327,-0.0343,-0.0344,-0.0327,-0.0327,-0.0327,0,-0.0334,-0.0306,-0.0304,-0.0286,-0.0269,-0.0272,-0.0247,-0.0242,-0.0235,-0.0238,-0.0249,-0.0272,-0.0297,-0.0307,-0.0297,-0.0307,-0.0329,-0.0323,-0.0323,-0.0322,-0.0322,-0.0339,-0.0341,-0.0324,-0.0324,-0.0324,-0.0325,0,-0.0306,-0.028,-0.0271,-0.0244,-0.0223,-0.0202,-0.0191,-0.018,-0.0183,-0.0184,-0.019,-0.0215,-0.0235,-0.024,-0.0261,-0.027,-0.0285,-0.0307,-0.034,-0.0316,-0.0335,-0.0338,-0.0319,-0.032,-0.0321,-0.0322,0,0,-0.0315,-0.0262,-0.026,-0.0233,-0.0199,-0.0177,-0.0154,-0.0135,-0.0126,-0.0131,-0.0123,-0.0148,-0.017,-0.0188,-0.0215,-0.024,-0.0249,-0.0271,-0.0274,-0.0285,-0.0306,-0.0292,-0.0295,-0.0274,-0.0274,-0.0275,-0.0312,0,-0.0299,-0.0249,-0.0227,-0.0171,-0.014,-0.0124,-0.0094,-0.008,-0.0079,-0.0072,-0.0109,-0.0113,-0.0149,-0.0156,-0.0185,-0.023,-0.0257,-0.0236,-0.033,-0.0332,-0.0323,-0.0298,-0.0214,-0.024,-0.0316,-0.0316,-0.0317,0,-0.0285,-0.025,-0.0192,-0.0124,-0.0111,-0.0077,-0.0036,-0.0012,-0.0011,-0.0015,-0.0035,-0.0062,-0.0091,-0.0126,-0.0201,-0.0186,-0.0243,-0.0283,-0.0286,-0.0303,-0.0325,-0.0281,-0.0243,-0.036,-0.0322,-0.0322,-0.0321,0,-0.0288,-0.0225,-0.0174,-0.015,-0.0079,-0.0056,-0.0023,-0.0001,0.0023,0.0014,0.0028,-0.0021,-0.003,-0.0112,-0.0183,-0.0199,-0.0262,-0.0298,-0.0342,-0.0341,-0.0304,-0.03,-0.0391,-0.0364,-0.0364,-0.0364,-0.0364,0,-0.0271,-0.0231,-0.0172,-0.0141,-0.008,-0.0041,0.0011,0.0029,0.0058,0.0102,0.0053,0.0079,-0.0028,-0.007,-0.0162,-0.0244,-0.025,-0.0333,-0.0351,-0.0276,-0.0269,-0.0397,-0.0489,-0.0365,-0.0365,-0.0365,-0.0364,0,-0.0262,-0.0229,-0.0166,-0.0097,-0.0075,-0.0032,0.0046,0.0085,0.0102,0.0159,0.0162,0.0151,0.0114,0.0012,-0.01,-0.0199,-0.0345,-0.0327,-0.0221,-0.0226,-0.0389,-0.0479,-0.06,-0.0649,-0.0391,-0.0391,-0.0391,0,-0.0244,-0.0212,-0.0138,-0.0099,-0.0063,0.0001,0.0055,0.0099,0.0149,0.0218,0.0255,0.0242,0.0272,0.0121,-0.0034,-0.018,-0.0316,-0.0251,-0.0278,-0.0383,-0.0498,-0.0553,-0.059,-0.0196,-0.0195,-0.0193,-0.0192,0,-0.0205,-0.0188,-0.0138,-0.0061,-0.0002,0.0076,0.0153,0.0207,0.0279,0.0353,0.045,0.0483,0.0368,0.0306,0.0096,-0.0042,-0.0314,-0.023,-0.0367,-0.0377,-0.0416,-0.0474,-0.0188,-0.018,-0.0181,-0.0182,-0.0183,-0.0183,-0.0178,-0.0142,-0.0084,-0.0007,0.0064,0.0169,0.027,0.0364,0.0493,0.0686,0.0656,0.0834,0.065,0.0406,0.0163,-0.0189,-0.0242,-0.0285,-0.0391,-0.0441,-0.0477,-0.0161,-0.0161,-0.0162,-0.0163,-0.0164,-0.0165,0,-0.0135,-0.0093,-0.0024,0.0081,0.0187,0.0213,0.0362,0.0503,0.0707,0.0915,0.1059,0.1177,0.091,0.0572,0.0071,-0.0253,-0.0392,-0.0448,-0.0509,-0.0546,-0.0271,-0.0251,-0.0235,-0.0235,-0.0235,-0.0235,-0.0235,-0.0235,-0.0107,-0.004,-0.0003,0.0177,0.0271,0.0464,0.058,0.0785,0.0989,0.1359,0.1595,0.1701,0.1442,0.0434,-0.0255,-0.0445,-0.069,-0.0728,-0.0893,-0.0707,-0.0699,-0.0693,-0.0693,-0.0771,-0.0772,-0.1067,-0.107,-0.1073]}],[{"header":{"parameterUnit":"m.s-1","parameterCategory":2,"la1":30.2991,"la2":30.254,"lo1":-89.0895,"lo2":-89.0444,"dy":0.0017,"dx":0.0017,"nx":28,"ny":28,"refTime":"2025-06-18T03:00:00:Z","depth":"2","parameterNumber":2,"parameterNumberName":"U-component_of_CURRENTS"},"data":[0,0,0,0,0,0,0,0,0,0,0,0,0,0,0,0,0,0,0,0,0,0,0,0,0,0,0,0,0,0,0,0,0,0,0,0,0,0,0,0,0,0,0,0,0,0,0,0,0,0,0,0,0,0,0,0,0,0,0.0992,0.0993,0,0.1023,0.1023,0.1023,0.1037,0.1037,0.1037,0.1037,0.1101,0.1103,0.1105,0,0,0,0,0,0,0,0,0,0,0,0,0,0.0919,0.0921,0.0992,0.0993,0.0993,0.1022,0.1023,0.1023,0.1037,0.1037,0.1037,0.1037,0.1101,0.1103,0.1105,0,0,0,0,0,0,0,0,0,0,0,0,0,0.095,0.0921,0.0992,0.1004,0.1005,0.1022,0.1023,0.1023,0.1037,0.1037,0.1037,0.1037,0.11,0.1103,0.1105,0.1121,0,0,0.1113,0.1114,0,0,0,0,0,0,0,0,0.0948,0.0953,0.1002,0.1003,0.1005,0.1026,0.1021,0.1058,0.1037,0.1024,0.1037,0.1037,0.108,0.1084,0.1089,0.1124,0.1127,0.1113,0.1115,0.1116,0.1117,0,0,0,0,0,0,0,0.0946,0.0951,0.1004,0.1002,0.1004,0.0998,0.1003,0.1028,0.1052,0.1025,0.1027,0.103,0.1081,0.1086,0.109,0.1128,0.1113,0.1116,0.1117,0.1118,0.1257,0.1259,0,0,0,0,0,0,0.0945,0.095,0.1003,0.1005,0.0976,0.1,0.1005,0.1019,0.1051,0.1056,0.103,0.1031,0.1082,0.1087,0.1093,0.1202,0.1116,0.1118,0.112,0.1255,0.1257,0.126,0,0,0,0,0,0,0.0944,0.095,0.1002,0.0977,0.0984,0.1001,0.1017,0.102,0.1037,0.1055,0.106,0.1047,0.1082,0.1089,0.1153,0.1201,0.112,0.1122,0.1252,0.1255,0.1258,0.1364,0,0,0,0,0,0,0.0942,0.095,0.097,0.0978,0.0985,0.104,0.1017,0.102,0.1039,0.104,0.107,0.1075,0.1082,0.115,0.1156,0.1203,0.1124,0.1249,0.1254,0.1257,0.1358,0.137,0.1381,0,0,0,0,0,0.0939,0.0967,0.0971,0.0977,0.1009,0.1042,0.1047,0.1057,0.104,0.1068,0.1093,0.1075,0.1179,0.1154,0.1161,0.121,0.1247,0.1252,0.1257,0.1353,0.1368,0.1381,0,0,0,0,0,0,0.0947,0.0971,0.0975,0.101,0.1037,0.1045,0.1069,0.1065,0.1102,0.1104,0.1109,0.1119,0.1193,0.1185,0.1157,0.126,0.1207,0.1213,0.1277,0.1292,0.1303,0.1304,0.1126,0,0,0,0,0,0.0958,0.0983,0.1007,0.1035,0.1052,0.1059,0.1074,0.1081,0.1107,0.1121,0.1145,0.1171,0.1215,0.124,0.1273,0.1331,0.1351,0.1363,0.1375,0.1385,0.139,0.1468,0.1488,0.1275,0.1275,0.1275,0,0,0.0965,0.0983,0.0997,0.1039,0.1056,0.1098,0.1069,0.1101,0.1141,0.1124,0.1195,0.1218,0.124,0.1315,0.1345,0.1316,0.1463,0.1391,0.1399,0.1399,0.1475,0.1496,0.1514,0.1279,0.1278,0.1277,0,0,0.0989,0.1015,0.1045,0.1077,0.1113,0.113,0.1142,0.1171,0.1195,0.126,0.1263,0.1319,0.1372,0.141,0.143,0.1523,0.1524,0.1526,0.1588,0.1665,0.1684,0.17,0.1786,0.1808,0.153,0.153,0.153,0,0.1,0.1043,0.106,0.1104,0.114,0.1148,0.1197,0.1228,0.1276,0.1316,0.13,0.141,0.1422,0.1521,0.155,0.1551,0.1595,0.1535,0.1682,0.1698,0.1713,0.1797,0.1821,0.1536,0.1535,0.1534,0.1534,0,0.1046,0.1092,0.1116,0.1179,0.1222,0.1267,0.1313,0.1366,0.1389,0.142,0.1523,0.155,0.1613,0.1628,0.1616,0.1729,0.1728,0.1692,0.1648,0.1741,0.1823,0.1846,0.1544,0.1542,0.154,0.1539,0,0,0.1049,0.1131,0.1142,0.1187,0.1268,0.1305,0.1396,0.1482,0.1545,0.16,0.1691,0.1758,0.1762,0.1784,0.1784,0.1841,0.1984,0.181,0.1811,0.1899,0.2177,0.2164,0.2188,0.1977,0.1981,0.1984,0.2204,0,0.1085,0.1164,0.1207,0.1304,0.1357,0.1419,0.1502,0.1583,0.1648,0.1742,0.1788,0.1863,0.1824,0.1855,0.1916,0.1965,0.2044,0.1929,0.2069,0.2074,0.2054,0.2213,0.1889,0.2055,0.2226,0.223,0.2233,0,0.1126,0.1176,0.1264,0.1376,0.1406,0.147,0.1612,0.1686,0.1817,0.1869,0.1959,0.1982,0.2088,0.2019,0.2186,0.2117,0.2158,0.2189,0.2197,0.2159,0.2104,0.1983,0.209,0.2271,0.2268,0.2265,0.2262,0,0.1121,0.1226,0.1294,0.1333,0.1456,0.1522,0.1596,0.1729,0.1806,0.1947,0.2014,0.2133,0.22,0.2277,0.2348,0.2275,0.2534,0.2436,0.2477,0.2477,0.2213,0.2184,0.2563,0.2563,0.2562,0.2562,0.2561,0,0.1153,0.1216,0.1294,0.1338,0.1438,0.1524,0.1647,0.1742,0.1877,0.1988,0.2064,0.2171,0.2264,0.2405,0.2438,0.2571,0.2622,0.2536,0.2549,0.2245,0.2217,0.2387,0.2364,0.257,0.2568,0.2566,0.2565,0,0.1156,0.1203,0.1291,0.1402,0.144,0.1514,0.1658,0.1747,0.1872,0.2023,0.2067,0.2243,0.2452,0.2572,0.2737,0.2696,0.2805,0.2833,0.2487,0.2455,0.2667,0.2647,0.2887,0.2889,0.289,0.2891,0.2893,0,0.117,0.1206,0.1313,0.1362,0.1418,0.1524,0.1604,0.1736,0.1827,0.2067,0.2139,0.2382,0.2522,0.2794,0.2766,0.2873,0.2973,0.267,0.2453,0.2721,0.2709,0.2686,0.2664,0.2155,0.215,0.2146,0.2143,0,0.1193,0.1221,0.1282,0.1374,0.1453,0.1542,0.1657,0.1717,0.1893,0.2011,0.222,0.2343,0.2548,0.2517,0.2657,0.2653,0.2617,0.259,0.2994,0.2126,0.2049,0.2031,0.203,0.2105,0.2109,0.2112,0.2114,0.2115,0.1203,0.124,0.1307,0.1402,0.1483,0.1567,0.1634,0.1732,0.1856,0.1971,0.2137,0.2224,0.2258,0.2286,0.2299,0.2302,0.2436,0.2321,0.2325,0.2336,0.2215,0.2145,0.2198,0.2202,0.2205,0.2209,0.2211,0,0.1221,0.1269,0.1339,0.144,0.1517,0.1581,0.1684,0.1672,0.1781,0.1842,0.1934,0.1788,0.1779,0.1929,0.1781,0.1776,0.1652,0.1812,0.1603,0.164,0.1673,0.1511,0.1312,0.131,0.1309,0.1307,0,0,0.1232,0.1287,0.1322,0.1447,0.1539,0.1623,0.1684,0.1604,0.1601,0.1532,0.1541,0.158,0.175,0.1469,0.1443,0.1378,0.1497,0.1326,0.2026,0.1809,0.184,0.1931,0.1721,0,0,0,0,0]},{"header":{"parameterUnit":"m.s-1","parameterCategory":2,"la1":30.2991,"la2":30.254,"lo1":-89.0895,"lo2":-89.0444,"dy":0.0017,"dx":0.0017,"nx":28,"ny":28,"refTime":"2025-06-18T03:00:00:Z","depth":"2","parameterNumber":3,"parameterNumberName":"V-component_of_CURRENTS"},"data":[0,0,0,0,0,0,0,0,0,0,0,0,0,0,0,0,0,0,0,0,0,0,0,0,0,0,0,0,0,0,0,0,0,0,0,0,0,0,0,0,0,0,0,0,0,0,0,0,0,0,0,0,0,0,0,0,0,0,0.0162,0.0161,0,0.0108,0.0107,0.0107,-0.0005,-0.0007,-0.0009,-0.0011,-0.0168,-0.0171,-0.0173,0,0,0,0,0,0,0,0,0,0,0,0,0,0.0193,0.0193,0.0162,0.0161,0.0161,0.0108,0.0107,0.0107,-0.0005,-0.0007,-0.001,-0.0012,-0.0168,-0.017,-0.0173,0,0,0,0,0,0,0,0,0,0,0,0,0,0.0162,0.0193,0.0162,0.01,0.0094,0.0109,0.0107,0.0106,-0.0004,-0.0007,-0.001,-0.0013,-0.0167,-0.017,-0.0173,-0.013,0,0,-0.0183,-0.0185,0,0,0,0,0,0,0,0,0.0164,0.0161,0.011,0.0104,0.0098,0.0056,0.0061,0.0023,-0.0003,0.0032,-0.0011,-0.0015,-0.01,-0.0109,-0.0112,-0.0138,-0.0144,-0.0184,-0.0186,-0.0187,-0.0188,0,0,0,0,0,0,0,0.0167,0.0163,0.0139,0.011,0.0102,0.0084,0.0075,0.0054,-0.0018,0.0028,0.0021,0.0018,-0.0104,-0.0108,-0.0117,-0.0147,-0.0184,-0.0187,-0.0189,-0.019,-0.0249,-0.0249,0,0,0,0,0,0,0.0178,0.0165,0.0141,0.0138,0.0125,0.0086,0.0076,0.0072,-0.0016,-0.0031,0.0021,0.0013,-0.0101,-0.0113,-0.0123,-0.014,-0.0187,-0.019,-0.0192,-0.025,-0.0249,-0.0249,0,0,0,0,0,0,0.0179,0.0177,0.0143,0.0151,0.0146,0.0088,0.0084,0.0072,0.0039,-0.0021,-0.0039,-0.0004,-0.0104,-0.0118,-0.0164,-0.0145,-0.0192,-0.0195,-0.025,-0.025,-0.0249,-0.0133,0,0,0,0,0,0,0.018,0.0177,0.0167,0.0152,0.0146,0.015,0.0087,0.0074,0.0044,0.0033,-0.0047,-0.0063,-0.0108,-0.0159,-0.0168,-0.015,-0.0197,-0.0251,-0.025,-0.0249,-0.0137,-0.0129,-0.0121,0,0,0,0,0,0.0182,0.0194,0.0167,0.0163,0.0137,0.0152,0.0147,0.0094,0.0046,0.0048,-0.002,-0.0063,-0.0161,-0.0161,-0.0171,-0.0154,-0.0251,-0.025,-0.0249,-0.0141,-0.013,-0.0121,0,0,0,0,0,0,0.0205,0.0183,0.0153,0.0156,0.015,0.0133,0.0126,0.0094,0.0046,0.0017,-0.0052,-0.007,-0.0103,-0.0145,-0.0144,-0.0172,-0.0214,-0.0215,-0.0129,-0.0119,-0.0111,-0.0088,-0.02,0,0,0,0,0,0.0208,0.0204,0.0189,0.0191,0.0186,0.0152,0.0144,0.0115,0.0079,0.0053,-0.0001,-0.0063,-0.0097,-0.0125,-0.0163,-0.0171,-0.0215,-0.0171,-0.0162,-0.0155,-0.0145,-0.0196,-0.0191,-0.0246,-0.0246,-0.0246,0,0,0.0223,0.0206,0.0205,0.0195,0.0177,0.0203,0.0138,0.0133,0.0146,0.0046,0.0026,-0.0035,-0.0095,-0.0109,-0.0128,-0.0148,-0.0161,-0.0154,-0.0146,-0.0141,-0.0195,-0.0189,-0.0185,-0.0245,-0.0245,-0.0245,0,0,0.0271,0.023,0.0249,0.0253,0.0235,0.0223,0.0222,0.0197,0.0168,0.0154,0.0082,0.0036,-0.0021,-0.0051,-0.0075,-0.0042,-0.0116,-0.0069,-0.0006,-0.0055,-0.005,-0.0047,-0.0084,-0.0085,-0.0064,-0.0064,-0.0064,0,0.0283,0.0304,0.0261,0.029,0.0301,0.0238,0.028,0.0262,0.0224,0.0209,0.0155,0.007,0.0017,0.0009,0.001,-0.0018,-0.0069,-0.0033,-0.0042,-0.004,-0.0039,-0.0078,-0.008,-0.0058,-0.0059,-0.0059,-0.006,0,0.036,0.0371,0.0387,0.0398,0.0407,0.0431,0.0411,0.0395,0.0342,0.0318,0.0276,0.0198,0.0137,0.0123,0.0074,0.0063,0.0018,-0.0023,-0.006,-0.0026,-0.007,-0.0074,-0.005,-0.0052,-0.0054,-0.0055,0,0,0.0405,0.0435,0.0435,0.0461,0.0463,0.0483,0.0502,0.0507,0.0505,0.0443,0.0438,0.0372,0.0289,0.0255,0.0182,0.0149,0.0119,0.0065,0.006,0.0042,0.0005,0.0085,0.0086,0.0061,0.0061,0.006,-0.0025,0,0.0474,0.0544,0.0545,0.062,0.0656,0.0624,0.0653,0.0641,0.0596,0.0571,0.0484,0.0431,0.0351,0.0293,0.0254,0.0148,0.0109,0.0146,-0.0038,-0.0043,0.0035,0.0085,-0.0,-0.0074,-0.003,-0.0031,-0.0032,0,0.0546,0.0584,0.0653,0.0719,0.0732,0.0754,0.0764,0.0784,0.0739,0.0696,0.0624,0.0531,0.046,0.0374,0.0232,0.0248,0.0132,0.0059,0.0052,0.0084,0.0029,-0.0107,-0.0085,-0.004,-0.004,-0.0039,-0.0038,0,0.0578,0.0665,0.0712,0.0734,0.0789,0.0796,0.0813,0.0796,0.0805,0.0736,0.071,0.0612,0.0532,0.0398,0.0234,0.0206,0.0091,0.0029,0.0001,0.0004,-0.0121,-0.0126,-0.0073,-0.0073,-0.0072,-0.0072,-0.0072,0,0.0646,0.0689,0.0716,0.0739,0.0791,0.0821,0.0851,0.0842,0.0838,0.086,0.0741,0.0739,0.0524,0.0428,0.0274,0.0151,0.0109,0.0033,-0.0002,-0.0079,-0.0079,-0.01,-0.0102,-0.0075,-0.0075,-0.0074,-0.0073,0,0.0658,0.068,0.0734,0.0783,0.079,0.0809,0.0858,0.0895,0.0873,0.0891,0.0859,0.0802,0.0712,0.0531,0.0335,0.0212,0.0077,0.0031,-0.0024,-0.006,0.0006,0.001,-0.0008,-0.0006,-0.0004,-0.0002,-0.0001,0,0.067,0.0691,0.0726,0.0736,0.074,0.078,0.0817,0.0864,0.0917,0.0958,0.0984,0.091,0.093,0.0715,0.0428,0.0197,0.017,-0.0006,-0.0048,0.0051,0.0016,0.0018,0.002,-0.0194,-0.0195,-0.0195,-0.0195,0,0.0688,0.0668,0.07,0.0712,0.0736,0.0818,0.0881,0.0951,0.1033,0.1112,0.1233,0.1265,0.1027,0.0793,0.047,0.0301,0.0034,-0.0009,0.0067,-0.015,-0.0119,-0.0153,-0.0148,-0.0197,-0.0197,-0.0197,-0.0197,-0.0197,0.0666,0.0675,0.0682,0.0702,0.0742,0.0855,0.0965,0.1105,0.1274,0.1411,0.1409,0.1429,0.1089,0.0686,0.0404,0.0065,0.009,-0.0065,-0.0069,-0.0071,-0.0029,0.0009,-0.004,-0.0039,-0.0038,-0.0037,-0.0036,0,0.0662,0.0661,0.0684,0.0737,0.0818,0.0822,0.1016,0.1201,0.1472,0.1509,0.1614,0.1297,0.1026,0.0685,0.0147,-0.0101,-0.0187,-0.0147,-0.0256,-0.0253,-0.025,-0.0221,-0.0281,-0.0282,-0.0282,-0.0283,0,0,0.0655,0.0675,0.0699,0.0799,0.0836,0.1016,0.1154,0.1421,0.1541,0.1682,0.1611,0.1464,0.1053,0.0627,0.0244,-0.0026,-0.0063,-0.0064,0.0143,0.0057,0.0064,-0.0208,-0.0158,0,0,0,0,0]}],[{"header":{"parameterUnit":"m.s-1","parameterCategory":2,"la1":30.2991,"la2":30.254,"lo1":-89.0895,"lo2":-89.0444,"dy":0.0017,"dx":0.0017,"nx":28,"ny":28,"refTime":"2025-06-18T03:00:00:Z","depth":"4","parameterNumber":2,"parameterNumberName":"U-component_of_CURRENTS"},"data":[0,0,0,0,0,0,0,0,0,0,0,0,0,0,0,0,0,0,0,0,0,0,0,0,0,0,0,0,0,0,0,0,0,0,0,0,0,0,0,0,0,0,0,0,0,0,0,0,0,0,0,0,0,0,0,0,0,0,0.0344,0.0345,0,0.0387,0.0388,0.0388,0.0424,0.0424,0.0425,0.0425,0.0381,0.0379,0.0378,0,0,0,0,0,0,0,0,0,0,0,0,0,0.0306,0.0306,0.0344,0.0345,0.0345,0.0387,0.0388,0.0388,0.0424,0.0424,0.0425,0.0425,0.0382,0.038,0.0378,0,0,0,0,0,0,0,0,0,0,0,0,0,0.0333,0.0306,0.0344,0.0368,0.0371,0.0387,0.0388,0.0388,0.0424,0.0424,0.0425,0.0426,0.0382,0.038,0.0378,0.035,0,0,0.037,0.0369,0,0,0,0,0,0,0,0,0.0331,0.0334,0.0364,0.0367,0.037,0.0401,0.0358,0.0372,0.0424,0.0403,0.0425,0.0426,0.0379,0.0377,0.0385,0.0348,0.0347,0.037,0.0369,0.0368,0.0367,0,0,0,0,0,0,0,0.0329,0.0332,0.0361,0.0365,0.0368,0.0382,0.0386,0.0361,0.0385,0.0405,0.0408,0.0413,0.038,0.0387,0.0384,0.0346,0.037,0.0368,0.0367,0.0366,0.0311,0.0311,0,0,0,0,0,0,0.0323,0.0331,0.0359,0.0362,0.0352,0.0382,0.0387,0.039,0.0388,0.0389,0.0413,0.0415,0.0391,0.0386,0.0382,0.0396,0.0368,0.0366,0.0364,0.0311,0.0311,0.0311,0,0,0,0,0,0,0.0322,0.0325,0.0358,0.0348,0.0353,0.0382,0.0385,0.0391,0.0414,0.0394,0.0394,0.0432,0.0391,0.0385,0.0376,0.0392,0.0364,0.0362,0.0311,0.0311,0.0311,0.0392,0,0,0,0,0,0,0.0321,0.0325,0.033,0.0347,0.0353,0.0379,0.0385,0.0391,0.0415,0.0419,0.041,0.0406,0.0391,0.038,0.0374,0.0388,0.0361,0.0311,0.0311,0.0311,0.039,0.0395,0.04,0,0,0,0,0,0.0319,0.0326,0.033,0.0334,0.0358,0.038,0.0385,0.0407,0.0415,0.0429,0.0423,0.0407,0.0375,0.0378,0.0371,0.0385,0.0311,0.0311,0.0311,0.0387,0.0394,0.0399,0,0,0,0,0,0,0.0316,0.0331,0.0335,0.0347,0.0366,0.0386,0.0401,0.0414,0.0422,0.0426,0.0408,0.0404,0.04,0.0374,0.0379,0.0366,0.0339,0.0337,0.0399,0.0405,0.041,0.045,0.0359,0,0,0,0,0,0.0315,0.0323,0.034,0.0351,0.0361,0.0382,0.0395,0.0412,0.0419,0.0426,0.0424,0.0408,0.039,0.0386,0.0365,0.0358,0.0342,0.036,0.0365,0.0369,0.0395,0.0367,0.0373,0.0311,0.0311,0.0311,0,0,0.0317,0.0326,0.0331,0.0351,0.0367,0.0393,0.0392,0.0418,0.0443,0.0415,0.0445,0.0424,0.039,0.039,0.0385,0.0375,0.0378,0.0369,0.0374,0.0398,0.0368,0.0374,0.038,0.0311,0.0311,0.0311,0,0,0.0329,0.0333,0.0347,0.0365,0.0392,0.0406,0.0417,0.0445,0.0461,0.0482,0.0463,0.0455,0.0442,0.0423,0.0408,0.0422,0.0402,0.0414,0.048,0.0452,0.0458,0.0462,0.0457,0.046,0.0421,0.0421,0.0421,0,0.0332,0.0355,0.0357,0.0381,0.0404,0.0415,0.0448,0.0462,0.0488,0.0499,0.0502,0.0487,0.0458,0.0449,0.047,0.0436,0.0432,0.0464,0.0462,0.0466,0.0469,0.0462,0.0465,0.0425,0.0425,0.0424,0.0424,0,0.0358,0.0384,0.0396,0.0429,0.0451,0.048,0.0501,0.0525,0.0547,0.0561,0.0571,0.0542,0.0544,0.0522,0.0513,0.052,0.0514,0.0469,0.0455,0.0481,0.0471,0.0473,0.0431,0.0429,0.0428,0.0427,0,0,0.0349,0.0405,0.0412,0.0443,0.0483,0.0506,0.0541,0.0576,0.0604,0.0622,0.0652,0.0635,0.0641,0.0626,0.0597,0.058,0.0603,0.0563,0.056,0.0574,0.0575,0.0562,0.0562,0.0569,0.057,0.057,0.0562,0,0.0375,0.0435,0.0455,0.0518,0.0551,0.0575,0.0607,0.0636,0.066,0.0687,0.0664,0.0682,0.0672,0.0686,0.0673,0.0611,0.0612,0.0612,0.0534,0.0532,0.053,0.0564,0.0572,0.0563,0.0563,0.0563,0.0563,0,0.0395,0.0435,0.0505,0.057,0.0586,0.0629,0.0686,0.0718,0.0743,0.0763,0.0786,0.0776,0.0778,0.0753,0.0707,0.0716,0.0682,0.0628,0.0625,0.0591,0.0522,0.0525,0.0566,0.0566,0.0566,0.0565,0.0565,0,0.039,0.0469,0.0531,0.0555,0.0626,0.0668,0.0711,0.0749,0.0767,0.0827,0.0842,0.0848,0.0847,0.0808,0.0742,0.0739,0.0666,0.0627,0.0581,0.0579,0.0559,0.0553,0.0607,0.0607,0.0607,0.0607,0.0607,0,0.0403,0.045,0.0544,0.0576,0.0639,0.0695,0.0751,0.0795,0.0837,0.082,0.0897,0.0855,0.0866,0.082,0.0764,0.0689,0.0689,0.0618,0.0581,0.0592,0.059,0.056,0.0555,0.0606,0.0607,0.0607,0.0607,0,0.0378,0.0444,0.0508,0.0605,0.0638,0.0685,0.0761,0.077,0.0857,0.0837,0.0862,0.0879,0.0823,0.0813,0.0726,0.071,0.0629,0.0599,0.0642,0.0603,0.0563,0.0562,0.0569,0.0569,0.0569,0.0568,0.0568,0,0.037,0.0408,0.051,0.0524,0.0572,0.0647,0.0658,0.0762,0.0749,0.0782,0.0729,0.075,0.0733,0.0659,0.0627,0.0591,0.0568,0.0591,0.0579,0.0599,0.0562,0.0561,0.056,0.0567,0.0567,0.0567,0.0567,0,0.0335,0.0379,0.0417,0.0444,0.0477,0.0507,0.0542,0.0558,0.0616,0.0683,0.0648,0.0666,0.0608,0.0592,0.0618,0.0548,0.0616,0.0587,0.0587,0.0575,0.0596,0.0559,0.0559,0.0566,0.0566,0.0566,0.0566,0,0.0296,0.0293,0.0325,0.0345,0.0357,0.0352,0.0416,0.0421,0.0467,0.0548,0.0484,0.0508,0.054,0.0557,0.0505,0.0535,0.0522,0.0554,0.0556,0.0557,0.0558,0.0583,0.0536,0,0,0,0,0,0.0257,0.0226,0.0209,0.0222,0.0219,0.0244,0.029,0.0349,0.0419,0.0396,0.0483,0.0427,0.0457,0.0447,0.047,0.0438,0.0487,0.0463,0.0516,0.0559,0.056,0.0562,0,0,0,0,0,0,0.0215,0.0203,0.0173,0.0097,0.0087,0.0085,0.0136,0.02,0.0225,0.0313,0.0327,0.0417,0.0427,0.0427,0.0454,0.0459,0.0498,0.0494,0.0495,0.0558,0.0559,0.056,0.0563,0,0,0,0,0]},{"header":{"parameterUnit":"m.s-1","parameterCategory":2,"la1":30.2991,"la2":30.254,"lo1":-89.0895,"lo2":-89.0444,"dy":0.0017,"dx":0.0017,"nx":28,"ny":28,"refTime":"2025-06-18T03:00:00:Z","depth":"4","parameterNumber":3,"parameterNumberName":"V-component_of_CURRENTS"},"data":[0,0,0,0,0,0,0,0,0,0,0,0,0,0,0,0,0,0,0,0,0,0,0,0,0,0,0,0,0,0,0,0,0,0,0,0,0,0,0,0,0,0,0,0,0,0,0,0,0,0,0,0,0,0,0,0,0,0,0.0067,0.0067,0,-0.0002,-0.0003,-0.0004,0.0006,0.0008,0.0009,0.001,0.0007,0.0006,0.0005,0,0,0,0,0,0,0,0,0,0,0,0,0,0.0154,0.0153,0.0067,0.0066,0.0066,-0.0002,-0.0003,-0.0004,0.0006,0.0008,0.0009,0.0011,0.0007,0.0006,0.0005,0,0,0,0,0,0,0,0,0,0,0,0,0,0.0103,0.0153,0.0067,0.0063,0.0062,-0.0002,-0.0003,-0.0004,0.0006,0.0008,0.001,0.0011,0.0008,0.0006,0.0004,-0.0045,0,0,-0.0001,-0.0002,0,0,0,0,0,0,0,0,0.0106,0.01,0.0065,0.0063,0.0062,0.0014,0.0027,-0.0014,0.0005,0.0026,0.001,0.0012,0.0015,0.0012,-0.0007,-0.0045,-0.0045,-0.0002,-0.0003,-0.0004,-0.0004,0,0,0,0,0,0,0,0.011,0.0103,0.0039,0.0064,0.0062,0.0047,0.0042,0.0018,0.0011,0.0025,0.0025,0.0019,0.0015,-0.0006,-0.0007,-0.0045,-0.0002,-0.0003,-0.0004,-0.0005,-0.0077,-0.0078,0,0,0,0,0,0,0.0121,0.0106,0.0041,0.0037,0.009,0.0044,0.0038,0.0027,0.001,0.0009,0.0017,0.0019,-0.0003,-0.0005,-0.0007,-0.0018,-0.0003,-0.0005,-0.0006,-0.0076,-0.0077,-0.0078,0,0,0,0,0,0,0.0123,0.0115,0.0044,0.0071,0.0061,0.0041,0.0027,0.0024,0.0021,0.0004,0.0004,0.002,-0.0002,-0.0004,-0.0023,-0.002,-0.0006,-0.0008,-0.0076,-0.0077,-0.0078,-0.0071,0,0,0,0,0,0,0.0125,0.0116,0.0113,0.0072,0.006,0.0009,0.0025,0.0022,0.0013,0.0016,0.0005,0.0006,-0.0001,-0.0021,-0.0025,-0.0022,-0.0009,-0.0075,-0.0076,-0.0078,-0.007,-0.0072,-0.0073,0,0,0,0,0,0.0128,0.0115,0.0113,0.0105,0.0055,0.0008,-0.0,-0.0009,0.0012,-0.0001,-0.0005,0.0007,-0.0033,-0.0024,-0.0029,-0.0025,-0.0074,-0.0076,-0.0077,-0.007,-0.0072,-0.0073,0,0,0,0,0,0,0.0147,0.0113,0.011,0.0087,0.0052,0.001,-0.0,-0.0005,-0.0021,-0.0006,-0.0012,-0.0014,-0.003,-0.0036,-0.0025,-0.0052,-0.0048,-0.0051,-0.0041,-0.0043,-0.0044,-0.0042,-0.0011,0,0,0,0,0,0.0149,0.0135,0.0094,0.0075,0.0061,0.0033,0.0017,0.001,-0.0011,-0.0015,-0.0019,-0.0027,-0.0048,-0.0049,-0.0071,-0.0089,-0.0105,-0.0089,-0.009,-0.0091,-0.0095,-0.0133,-0.0138,-0.0084,-0.0084,-0.0084,0,0,0.0152,0.0131,0.0123,0.0079,0.0057,0.0021,0.0028,0.0005,-0.0019,-0.0014,-0.0032,-0.0037,-0.0058,-0.0079,-0.0084,-0.0076,-0.0114,-0.0094,-0.0094,-0.0097,-0.0135,-0.014,-0.0145,-0.0085,-0.0085,-0.0085,0,0,0.014,0.0131,0.0112,0.0082,0.0049,0.0024,0.0021,-0.0012,-0.0017,-0.0041,-0.0044,-0.0055,-0.0072,-0.0097,-0.0109,-0.0137,-0.0127,-0.0124,-0.0121,-0.0157,-0.0162,-0.0166,-0.0184,-0.0189,-0.0115,-0.0115,-0.0115,0,0.0146,0.0115,0.0097,0.0065,0.0045,0.0027,-0.0002,-0.0028,-0.0059,-0.0065,-0.004,-0.0079,-0.009,-0.0134,-0.0129,-0.0141,-0.0144,-0.0108,-0.0158,-0.0163,-0.0168,-0.0185,-0.0191,-0.0115,-0.0115,-0.0115,-0.0115,0,0.0112,0.009,0.0076,0.0033,0.0004,-0.0022,-0.0058,-0.0071,-0.0062,-0.008,-0.0101,-0.0119,-0.0127,-0.0137,-0.0134,-0.0169,-0.0155,-0.0162,-0.015,-0.0172,-0.0189,-0.0196,-0.0115,-0.0115,-0.0115,-0.0115,0,0,0.0121,0.0064,0.0063,0.0047,-0.0008,-0.003,-0.007,-0.0111,-0.0117,-0.0133,-0.0147,-0.0177,-0.015,-0.0164,-0.0164,-0.0194,-0.0221,-0.0171,-0.0173,-0.0182,-0.0276,-0.0248,-0.0253,-0.0221,-0.0222,-0.0223,-0.0271,0,0.0102,0.0056,0.0026,-0.0014,-0.0041,-0.0067,-0.0098,-0.013,-0.0143,-0.0161,-0.0183,-0.0182,-0.0172,-0.0141,-0.018,-0.022,-0.0239,-0.0206,-0.0259,-0.0261,-0.0229,-0.0261,-0.0228,-0.0276,-0.0278,-0.0279,-0.028,0,0.008,0.0054,0.0027,-0.0019,-0.003,-0.0027,-0.0055,-0.0087,-0.0131,-0.0134,-0.0147,-0.0162,-0.02,-0.0176,-0.0259,-0.0227,-0.0236,-0.0271,-0.0274,-0.0257,-0.0247,-0.0254,-0.0292,-0.0291,-0.0291,-0.029,-0.0289,0,0.0106,0.0051,0.0046,0.0029,-0.0021,0.0006,0.0005,-0.0035,-0.0046,-0.0074,-0.0081,-0.0147,-0.0144,-0.0203,-0.0255,-0.0241,-0.0355,-0.0352,-0.0346,-0.0343,-0.0355,-0.035,-0.0401,-0.04,-0.04,-0.04,-0.04,0,0.0091,0.008,0.0095,0.0092,0.0131,0.0085,0.0124,0.0103,0.0074,0.0038,-0.0012,-0.0062,-0.0143,-0.0223,-0.027,-0.0332,-0.036,-0.0354,-0.0361,-0.0349,-0.0344,-0.0359,-0.0353,-0.0402,-0.0402,-0.0401,-0.0401,0,0.0108,0.01,0.0108,0.012,0.0157,0.0209,0.0252,0.0237,0.0219,0.017,0.0172,0.003,-0.0076,-0.0177,-0.0291,-0.0329,-0.0407,-0.041,-0.0386,-0.039,-0.0365,-0.0359,-0.0419,-0.0419,-0.0419,-0.0418,-0.0418,0,0.0099,0.0114,0.0182,0.0243,0.0285,0.0361,0.0386,0.036,0.0309,0.0198,0.0137,0.005,-0.0052,-0.0176,-0.0301,-0.0396,-0.0393,-0.0423,-0.04,-0.037,-0.0371,-0.0365,-0.0359,-0.0417,-0.0417,-0.0417,-0.0417,0,0.0095,0.0152,0.0171,0.0317,0.0401,0.0414,0.0441,0.0459,0.0353,0.0295,0.0175,0.0093,-0.0041,-0.0166,-0.0221,-0.0306,-0.0414,-0.0419,-0.042,-0.0399,-0.0368,-0.0368,-0.0363,-0.0416,-0.0416,-0.0416,-0.0416,0,0.013,0.0158,0.0236,0.0389,0.0456,0.0479,0.0494,0.0439,0.041,0.0283,0.0226,0.0095,-0.0014,-0.0123,-0.0215,-0.0261,-0.027,-0.0271,-0.028,-0.0283,-0.0232,-0.0172,-0.0172,0,0,0,0,0,0.0163,0.0214,0.0302,0.0433,0.0494,0.055,0.0494,0.0462,0.0385,0.033,0.0303,0.0181,0.0057,-0.0049,-0.0076,-0.022,-0.0292,-0.026,-0.0299,-0.0409,-0.041,-0.0372,0,0,0,0,0,0,0.0168,0.0245,0.0294,0.0449,0.0575,0.0588,0.0588,0.0522,0.0473,0.0403,0.034,0.0222,0.0095,0.014,-0.004,-0.0079,-0.0104,-0.0356,-0.0356,-0.0408,-0.0409,-0.0411,-0.0372,0,0,0,0,0]}]]